This is the latest recevied weather packets stored in our database for station/object W3TMB. If no packets are shown the sender has not sent any weather packets the latest 10 day(s).
| Time | Temp. | Humidity | Pressure | Rain* | Wind** | Luminosity | Snow |
|---|---|---|---|---|---|---|---|
| 1778288778 | 10.56° C | 99% | 1009.1 hPa | 0 mm | - | 0 W/m² | - |
| 1778288474 | 10° C | 99% | 1008.9 hPa | 0 mm | - | 0 W/m² | - |
| 1778288172 | 10° C | 99% | 1008.9 hPa | 0 mm | - | 0 W/m² | - |
| 1778287868 | 10° C | 99% | 1008.7 hPa | 0 mm | - | 0 W/m² | - |
| 1778287564 | 10.56° C | 99% | 1008.8 hPa | 0 mm | - | 0 W/m² | - |
| 1778287261 | 10.56° C | 99% | 1008.9 hPa | 0 mm | - | 0 W/m² | - |
| 1778286960 | 10.56° C | 99% | 1009.1 hPa | 0 mm | - | 0 W/m² | - |
| 1778286657 | 10.56° C | 99% | 1008.7 hPa | 0 mm | - | 0 W/m² | - |
| 1778286354 | 10.56° C | 99% | 1008.6 hPa | 0 mm | - | 0 W/m² | - |
| 1778286052 | 10.56° C | 98% | 1008.8 hPa | 0 mm | - | 0 W/m² | - |
| 1778285749 | 10.56° C | 98% | 1008.7 hPa | 0 mm | - | 0 W/m² | - |
| 1778285444 | 10.56° C | 98% | 1008.6 hPa | 0 mm | - | 2 W/m² | - |
| 1778285143 | 10.56° C | 97% | 1008.6 hPa | 0 mm | - | 2 W/m² | - |
| 1778284839 | 10.56° C | 97% | 1008.5 hPa | 0 mm | - | 3 W/m² | - |
| 1778284537 | 11.11° C | 97% | 1008.7 hPa | 0 mm | - | 8 W/m² | - |
| 1778284233 | 11.11° C | 96% | 1008.4 hPa | 0 mm | - | 10 W/m² | - |
| 1778283930 | 11.67° C | 96% | 1008.4 hPa | 0 mm | - | 14 W/m² | - |
| 1778283627 | 11.67° C | 95% | 1008.5 hPa | 0 mm | - | 15 W/m² | - |
| 1778283327 | 12.22° C | 91% | 1008.2 hPa | 0 mm | - | 26 W/m² | - |
| 1778283023 | 12.78° C | 89% | 1008.5 hPa | 0 mm | - | 29 W/m² | - |
| 1778282720 | 12.78° C | 85% | 1008.5 hPa | 0 mm | - | 32 W/m² | - |
| 1778282417 | 13.33° C | 86% | 1008.2 hPa | 0 mm | - | 35 W/m² | - |
| 1778282115 | 13.89° C | 84% | 1008.2 hPa | 0 mm | - | 43 W/m² | - |
| 1778281812 | 14.44° C | 84% | 1008.3 hPa | 0 mm | - | 60 W/m² | - |
| 1778281509 | 14.44° C | 87% | 1008.1 hPa | 0 mm | - | 79 W/m² | - |
* Rain latest hour (hover to see other rain measurements)
** Current wind speed in m/s (hover to see current wind gust speed)